Home   Weather   Chinle   Past weeks

Flag for USA Past Weather in Chinle, Arizona, USA — Yesterday and Last 2 Weeks

Now
30 °F

Passing clouds.


Feels Like: 30 °F
Forecast: 29 / 48 °F
Wind: No wind

Location: Gallup Municipal Airport

Current Time: Jan 17, 2017 at 9:28:25 pm

Latest Report: Jan 17, 2017 at 8:53 pm


Visibility: 10 mi

Pressure: 30.18 "Hg (24.44 "Hg at 1678m altitude)

Humidity: 92%

Dew Point: 28 °F

Location of ChinleLocation

Past Weather in Chinle — Graph

°F

Chinle Temperature Yesterday

Maximum temperature yesterday: 40 °F (at 11:53 am)
Minimum temperature yesterday: 32 °F (at 10:19 pm)
Average temperature yesterday: 35 °F

High & Low Weather Summary for the Past Weeks

 TemperatureHumidityPressure
High56 °F (Jan 8, 2:53 pm)100% (Jan 17, 2:26 am)30.69 "Hg (Jan 17, 2:26 am)
Low9 °F (Jan 7, 4:53 am)29% (Jan 10, 3:53 pm)29.56 "Hg (Jan 6, 1:53 am)
Average37 °F73%30.06 "Hg
* Reported Jan 2 7:53 pm — Jan 17 7:53 pm, Chinle, Weather by CustomWeather, © 2017

Note: Actual official high and low records may vary slightly from our data, if they occured in-between our weather recording intervals... More about our weather records

Advertising

Chinle Weather History for the Previous 24 Hours

Scroll right to see more
 ConditionsComfort  
Time TempWeatherWind HumidityBarometerVisibility
7:53 pm
Tue, Jan 17
31 °FClear.No wind92%30.20 "Hg10 mi
6:53 pm35 °FClear.No wind85%30.17 "Hg10 mi
5:53 pm36 °FPassing clouds.12 mph82%30.14 "Hg10 mi
4:53 pm39 °FSunny.10 mph79%30.12 "Hg10 mi
4:19 pm41 °FBroken clouds.9 mph74%30.12 "Hg10 mi
3:53 pm42 °FPartly sunny.13 mph71%30.09 "Hg10 mi
2:53 pm42 °FScattered clouds.7 mph76%30.08 "Hg10 mi
2:37 pm44 °FPartly sunny.12 mph76%30.10 "Hg10 mi
2:05 pm42 °FBroken clouds.7 mph76%30.10 "Hg10 mi
1:53 pm42 °FMostly cloudy.8 mph76%30.08 "Hg10 mi
12:53 pm39 °FBroken clouds.5 mph79%30.11 "Hg10 mi
11:53 am38 °FOvercast.3 mph83%30.15 "Hg10 mi
11:10 am36 °FMostly cloudy.No wind85%30.17 "Hg10 mi
10:53 am35 °FMore clouds than sun.No wind85%30.18 "Hg10 mi
10:34 am35 °FOvercast.No wind88%30.17 "Hg10 mi
9:53 am34 °FLow clouds.5 mph88%30.17 "Hg10 mi
8:53 am33 °FLow clouds.8 mph88%30.17 "Hg10 mi
7:53 am31 °FLow clouds.6 mph96%30.16 "Hg10 mi
6:53 am31 °FLow clouds.5 mph92%30.15 "Hg10 mi
5:53 am32 °FLight snow. Low clouds.6 mph92%30.12 "Hg9 mi
4:53 am31 °FLow clouds.5 mph92%30.09 "Hg10 mi
3:53 am30 °FLow clouds.6 mph92%30.10 "Hg10 mi
3:18 am31 °FLow clouds.No wind96%30.10 "Hg7 mi
2:53 am29 °FIce fog.No wind100%30.12 "Hg1 mi
2:26 am30 °FLight snow. Ice fog.No wind100%30.10 "Hg1 mi
2:01 am32 °FLight snow. Ice fog.No wind96%30.10 "Hg3 mi
12:53 am32 °FLight snow. Ice fog.No wind96%30.08 "Hg6 mi
11:53 pm
Mon, Jan 16
32 °FLight snow. Overcast.3 mph92%30.07 "Hg8 mi
10:51 pm32 °FLight snow. Ice fog.5 mph96%30.09 "Hg6 mi
10:28 pm32 °FLight snow. Ice fog.3 mph96%30.09 "Hg2 mi
10:19 pm32 °FLight snow. Ice fog.5 mph96%30.09 "Hg2 mi
9:57 pm33 °FLight snow. Fog.3 mph92%30.09 "Hg2 mi
9:37 pm33 °FLight snow. Fog.No wind96%30.08 "Hg1 mi
9:07 pm33 °FLight snow. Fog.3 mph96%30.08 "Hg1 mi
Weather by CustomWeather, © 2017

See weather overviewHow to use our weather pages